CW8033 Weather Reports


time (UTC)temp
C
wind
direction
speed
KPH
gust
KPH
rain 1hr
cm
rain 24hr
cm
rain mn
cm
humidity
%
barometer
mb
20260506070202 11 230 11.3 20.9 0.00 0.25 0.03 87 1003.6
20260506062201 11 182 9.7 19.3 0.00 0.25 0.03 87 1003.7
20260506061700 11 187 9.7 20.9 0.00 0.25 0.03 88 1003.6
20260506061202 11 184 11.3 20.9 0.00 0.25 0.03 88 1003.7
20260506060702 11 196 8.0 16.1 0.00 0.25 0.03 88 1003.6
20260506060204 11 186 8.0 16.1 0.00 0.25 0.03 88 1003.6
20260506051201 10 207 9.7 22.5 0.00 0.25 0.03 90 1003.3
20260506050702 10 216 9.7 16.1 0.00 0.25 0.03 90 1003.3
20260506050201 10 186 8.0 16.1 0.00 0.25 0.03 90 1003.3
20260506044701 10 188 9.7 19.3 0.00 0.25 0.03 91 1003.5
20260506044201 10 209 11.3 19.3 0.00 0.25 0.03 91 1003.5
20260506043703 10 194 9.7 17.7 0.00 0.25 0.03 91 1003.5
20260506043201 10 206 8.0 14.5 0.00 0.25 0.03 91 1003.5
20260506042702 10 186 8.0 14.5 0.00 0.25 0.03 91 1003.6
20260506042507 10 203 9.7 16.1 0.00 0.25 0.03 91 1003.6
20260506041700 10 219 11.3 16.1 0.00 0.25 0.03 91 1003.6
20260506041201 11 196 9.7 14.5 0.00 0.25 0.03 91 1003.7
20260506040702 11 180 8.0 14.5 0.00 0.25 0.03 91 1003.6
20260506040201 10 184 8.0 17.7 0.00 0.25 0.03 91 1003.6
20260506035701 11 194 9.7 19.3 0.00 0.25 0.03 91 1003.6
20260506035202 10 165 8.0 19.3 0.00 0.25 0.03 91 1003.8
20260506034701 10 182 8.0 16.1 0.00 0.25 0.03 91 1003.8
20260506034203 11 190 8.0 16.1 0.00 0.25 0.03 91 1003.9
20260506033701 11 188 8.0 16.1 0.00 0.25 0.03 91 1003.9
20260506033200 11 211 9.7 16.1 0.00 0.25 0.03 91 1003.8
20260506032701 11 186 9.7 17.7 0.00 0.25 0.03 91 1003.8
20260506032202 11 209 9.7 17.7 0.00 0.25 0.03 91 1003.8
20260506031702 11 195 9.7 16.1 0.00 0.25 0.03 91 1003.7
20260506031201 11 183 9.7 17.7 0.00 0.25 0.03 91 1003.8
20260506030702 11 175 9.7 17.7 0.00 0.25 0.03 91 1003.9
20260506030201 11 210 8.0 14.5 0.00 0.25 0.03 91 1003.9
20260506025701 11 169 8.0 14.5 0.00 0.25 0.03 91 1003.9
20260506025201 11 205 8.0 16.1 0.00 0.25 0.03 91 1004.0
20260506024701 11 213 9.7 17.7 0.00 0.25 0.03 91 1004.0
20260506024201 11 191 11.3 17.7 0.00 0.25 0.03 91 1004.0
20260506023701 11 202 9.7 16.1 0.00 0.25 0.03 91 1003.9
20260506023203 11 219 9.7 17.7 0.00 0.25 0.03 91 1003.9
20260506022701 11 202 11.3 17.7 0.00 0.25 0.03 91 1003.9
20260506022200 11 190 11.3 19.3 0.00 0.25 0.03 91 1004.0
20260506021702 11 217 12.9 19.3 0.00 0.25 0.03 91 1003.8
20260506021515 11 192 11.3 17.7 0.00 0.25 0.03 91 1003.9
20260506021008 11 171 11.3 17.7 0.00 0.25 0.03 91 1003.8
20260506020202 11 207 11.3 20.9 0.00 0.25 0.03 91 1003.8
20260506015702 11 195 11.3 20.9 0.00 0.25 0.03 91 1003.9
20260506015203 11 193 9.7 19.3 0.00 0.25 0.03 92 1004.0
20260506014702 11 193 11.3 19.3 0.00 0.25 0.03 91 1003.9
20260506014510 11 187 11.3 19.3 0.00 0.25 0.03 91 1004.0
20260506013701 11 180 9.7 19.3 0.00 0.25 0.03 91 1003.9
20260506013201 11 190 9.7 16.1 0.00 0.25 0.03 91 1004.1
20260506012701 11 200 9.7 14.5 0.00 0.25 0.03 91 1004.1
20260506012203 12 189 9.7 12.9 0.00 0.25 0.03 91 1004.1
20260506011703 12 202 6.4 11.3 0.00 0.25 0.03 91 1004.1
20260506011201 12 176 8.0 16.1 0.00 0.25 0.03 91 1004.2
20260506010703 12 199 9.7 16.1 0.00 0.25 0.03 91 1004.3
20260506010202 12 200 9.7 14.5 0.00 0.25 0.03 91 1004.3
20260506010001 12 190 9.7 14.5 0.00 0.25 0.03 91 1004.2
20260506005201 12 192 9.7 14.5 0.00 0.25 0.03 91 1004.3
20260506004814 12 198 9.7 14.5 0.00 0.25 0.03 91 1004.3
20260506004752 12 188 9.7 14.5 0.00 0.25 0.03 91 1004.3
20260506003701 12 193 8.0 16.1 0.00 0.25 0.03 91 1004.4
20260506003203 12 218 8.0 16.1 0.00 0.25 0.03 91 1004.4
20260506002703 12 190 9.7 17.7 0.00 0.25 0.03 91 1004.5
20260506002201 12 189 9.7 17.7 0.00 0.25 0.03 91 1004.5
20260506001704 12 192 9.7 16.1 0.00 0.25 0.03 91 1004.6
20260506001202 12 199 9.7 16.1 0.00 0.25 0.03 91 1004.6
20260506000701 12 207 9.7 16.1 0.00 0.25 0.03 91 1004.7
20260506000204 12 195 9.7 17.7 0.00 0.25 0.03 91 1004.6
20260505235703 12 190 9.7 17.7 0.03 0.25 0.03 91 1004.7
20260505235202 12 210 8.0 14.5 0.03 0.25 0.03 91 1004.7
20260505235004 12 175 8.0 14.5 0.03 0.25 0.03 91 1004.7
20260505234210 12 203 8.0 16.1 0.03 0.25 0.03 91 1004.7
20260505234014 12 186 8.0 16.1 0.03 0.25 0.03 91 1004.8
20260505233201 12 184 6.4 11.3 0.03 0.25 0.03 92 1004.8
20260505232702 12 171 4.8 14.5 0.03 0.25 0.03 91 1004.8
20260505232200 12 172 4.8 14.5 0.03 0.25 0.03 91 1004.8
20260505231700 12 161 4.8 11.3 0.03 0.25 0.03 91 1004.8
20260505231200 12 176 4.8 8.0 0.03 0.25 0.03 91 1004.8
20260505230703 12 176 6.4 9.7 0.03 0.25 0.03 91 1004.9
20260505230332 12 178 6.4 14.5 0.00 0.23 0.00 92 1004.9
20260505230254 12 196 6.4 9.7 0.03 0.25 0.03 91 1004.9
20260505225147 12 194 6.4 14.5 0.00 0.23 0.00 92 1004.9
20260505224647 12 173 6.4 11.3 0.00 0.23 0.00 91 1005.0
20260505224148 12 188 4.8 11.3 0.00 0.23 0.00 91 1005.0
20260505223648 12 206 1.6 8.0 0.00 0.23 0.00 91 1005.0
20260505223147 12 206 3.2 8.0 0.00 0.23 0.00 91 1005.0
20260505222648 12 189 4.8 12.9 0.00 0.23 0.00 91 1005.0
20260505222245 12 201 6.4 12.9 0.00 0.23 0.00 91 1005.1
20260505222228 12 189 6.4 12.9 0.00 0.23 0.00 91 1005.0
20260505221146 12 212 8.0 17.7 0.00 0.23 0.00 91 1005.0
20260505220644 12 179 6.4 17.7 0.00 0.23 0.00 91 1005.1
20260505220146 12 182 3.2 9.7 0.00 0.23 0.00 91 1005.1
20260505215647 12 205 1.6 8.0 0.00 0.23 0.23 91 1005.1
20260505215146 12 209 0.0 1.6 0.00 0.23 0.23 91 1005.1
20260505214932 12 209 0.0 3.2 0.00 0.23 0.23 91 1005.0
20260505214131 12 209 0.0 3.2 0.00 0.23 0.23 91 1005.0
20260505213628 12 197 0.0 3.2 0.00 0.23 0.23 91 1005.1
20260505213131 12 197 0.0 6.4 0.00 0.23 0.23 91 1005.1
20260505212631 12 197 0.0 6.4 0.00 0.23 0.23 91 1005.1
20260505212131 12 197 1.6 8.0 0.00 0.23 0.23 91 1005.1
20260505211630 12 197 4.8 9.7 0.00 0.23 0.23 91 1005.1
20260505211130 12 197 3.2 9.7 0.00 0.23 0.23 91 1005.1
20260505210629 12 178 3.2 11.3 0.00 0.23 0.23 91 1005.2
20260505210440 12 183 6.4 14.5 0.00 0.23 0.23 91 1005.2
20260505205628 12 205 6.4 14.5 0.00 0.23 0.23 91 1005.2
20260505205130 12 172 6.4 12.9 0.00 0.23 0.23 91 1005.2
20260505204631 12 191 4.8 12.9 0.00 0.23 0.23 91 1005.2
20260505204429 12 175 6.4 12.9 0.00 0.23 0.23 90 1005.1
20260505203628 12 195 6.4 12.9 0.00 0.23 0.23 90 1005.2
20260505203130 12 199 4.8 12.9 0.00 0.23 0.23 90 1005.1
20260505202629 12 188 4.8 12.9 0.00 0.23 0.23 90 1005.0
20260505202130 12 220 6.4 12.9 0.00 0.23 0.23 90 1005.0
20260505201631 12 188 6.4 12.9 0.00 0.23 0.23 90 1004.9
20260505201129 12 191 6.4 12.9 0.03 0.23 0.23 90 1004.9
20260505200628 12 205 8.0 12.9 0.03 0.23 0.23 90 1004.9
20260505200130 12 182 6.4 12.9 0.03 0.23 0.23 90 1004.9
20260505195629 12 173 6.4 14.5 0.03 0.23 0.23 90 1004.9
20260505195253 13 155 4.8 11.3 0.03 0.23 0.23 90 1004.9
20260505195225 12 182 6.4 14.5 0.03 0.23 0.23 90 1004.9
20260505194128 13 161 4.8 9.7 0.03 0.23 0.23 90 1004.8
20260505193628 13 166 4.8 9.7 0.03 0.23 0.23 90 1004.8
20260505193126 13 188 3.2 9.7 0.03 0.23 0.23 90 1004.9
20260505192628 13 155 3.2 8.0 0.03 0.23 0.23 89 1004.8
20260505192128 13 162 1.6 6.4 0.03 0.23 0.23 89 1004.8
20260505191626 13 153 3.2 9.7 0.03 0.23 0.23 89 1004.8
20260505191425 13 153 4.8 12.9 0.00 0.23 0.23 89 1004.7
20260505190926 13 149 1.6 12.9 0.00 0.23 0.23 89 1004.6
20260505190124 13 155 1.6 6.4 0.00 0.23 0.23 89 1004.7
20260505185623 13 155 1.6 6.4 0.03 0.23 0.23 89 1004.6
20260505185124 13 155 1.6 3.2 0.05 0.23 0.23 89 1004.6
20260505184620 13 155 1.6 3.2 0.05 0.23 0.23 89 1004.6
20260505184115 13 155 1.6 6.4 0.05 0.23 0.23 89 1004.6
20260505183604 13 155 1.6 6.4 0.05 0.23 0.23 89 1004.6
20260505183103 13 155 1.6 6.4 0.05 0.23 0.23 89 1004.7
20260505182851 13 155 1.6 6.4 0.05 0.23 0.23 88 1004.6
20260505182050 13 155 3.2 8.0 0.05 0.23 0.23 88 1004.6
20260505181850 13 156 3.2 8.0 0.05 0.23 0.23 88 1004.6
20260505181346 13 156 3.2 8.0 0.05 0.23 0.23 88 1004.6
20260505180707 13 156 0.0 8.0 0.05 0.23 0.23 87 1004.7
20260505180628 13 156 1.6 8.0 0.05 0.23 0.23 87 1004.7
20260505175839 14 169 0.0 6.4 0.03 0.20 0.20 86 1004.8
20260505175038 14 169 0.0 6.4 0.00 0.18 0.18 85 1004.7
20260505174538 14 169 0.0 1.6 0.00 0.18 0.18 85 1004.8
20260505174032 14 169 1.6 6.4 0.00 0.18 0.18 84 1004.8
20260505173832 14 169 1.6 6.4 0.00 0.18 0.18 83 1004.8
20260505173034 14 169 1.6 6.4 0.00 0.18 0.18 83 1004.8
20260505172535 14 169 0.0 6.4 0.00 0.18 0.18 83 1004.8
20260505172034 14 185 0.0 3.2 0.00 0.18 0.18 83 1004.8
20260505171533 14 185 0.0 3.2 0.00 0.18 0.18 82 1004.8
20260505171034 14 186 0.0 3.2 0.00 0.18 0.18 82 1004.8
20260505170533 14 221 0.0 3.2 0.00 0.18 0.18 82 1004.8
20260505170039 14 221 0.0 0.0 0.00 0.18 0.18 82 1004.8
20260505165531 14 221 0.0 3.2 0.00 0.18 0.18 82 1004.8
20260505165031 15 221 0.0 3.2 0.00 0.18 0.18 82 1004.9
20260505164529 15 221 0.0 1.6 0.00 0.18 0.18 82 1004.9
20260505164334 14 276 0.0 0.0 0.00 0.18 0.18 81 1004.9
20260505163529 15 276 0.0 0.0 0.00 0.18 0.18 82 1004.9
20260505163030 14 276 0.0 0.0 0.00 0.18 0.18 83 1004.9
20260505162536 14 276 0.0 0.0 0.00 0.18 0.18 83 1004.9
20260505162030 14 276 0.0 0.0 0.00 0.18 0.18 83 1004.9
20260505161528 14 276 0.0 1.6 0.00 0.18 0.18 82 1004.9
20260505161031 14 276 0.0 1.6 0.00 0.18 0.18 82 1005.0
20260505160830 14 276 0.0 1.6 0.00 0.18 0.18 83 1005.0
20260505160331 13 276 1.6 3.2 0.00 0.18 0.18 83 1005.0
20260505153028 13 266 0.0 3.2 0.03 0.18 0.18 81 1005.1
20260505152531 13 266 3.2 8.0 0.03 0.18 0.18 82 1005.2
20260505152029 13 266 4.8 8.0 0.03 0.18 0.18 81 1005.3
20260505151523 13 298 3.2 9.7 0.05 0.18 0.18 82 1005.3
20260505151025 13 257 4.8 9.7 0.05 0.18 0.18 85 1005.4
20260505150506 13 315 3.2 8.0 0.05 0.18 0.18 84 1005.4
20260505140502 14 213 3.2 8.0 0.05 0.15 0.15 84 1005.8
20260505140310 14 219 1.6 8.0 0.05 0.15 0.15 85 1005.8
20260505124936 14 249 1.6 8.0 0.08 0.10 0.10 86 1006.4
20260505124436 14 250 3.2 8.0 0.08 0.10 0.08 84 1006.4
20260505123933 14 217 4.8 8.0 0.05 0.08 0.08 84 1006.4
20260505123432 14 217 4.8 11.3 0.08 0.08 0.08 83 1006.4
20260505122931 14 171 4.8 11.3 0.08 0.08 0.08 85 1006.4
20260505122731 14 188 4.8 11.3 0.05 0.05 0.05 85 1006.5
20260505121935 14 250 4.8 9.7 0.05 0.05 0.05 83 1006.4
20260505121430 15 195 4.8 9.7 0.05 0.05 0.05 84 1006.5
20260505120930 14 195 1.6 8.0 0.05 0.05 0.05 84 1006.4
20260505120429 14 195 1.6 8.0 0.05 0.05 0.05 83 1006.4
20260505115930 14 195 4.8 12.9 0.05 0.05 0.05 83 1006.5
20260505115431 14 194 6.4 12.9 0.03 0.03 0.03 82 1006.5
20260505114930 14 186 8.0 12.9 0.03 0.03 0.03 82 1006.6
20260505114732 15 186 6.4 12.9 0.03 0.03 0.03 82 1006.5
20260505113930 15 175 6.4 11.3 0.03 0.03 0.03 82 1006.6
20260505113429 14 186 6.4 11.3 0.00 0.00 0.00 82 1006.5
20260505112929 14 194 6.4 11.3 0.00 0.00 0.00 82 1006.6
20260505112429 14 202 4.8 11.3 0.00 0.00 0.00 80 1006.6
20260505111931 15 206 3.2 9.7 0.00 0.00 0.00 81 1006.6
20260505111429 15 190 6.4 11.3 0.00 0.00 0.00 81 1006.6
20260505110931 14 211 6.4 11.3 0.00 0.00 0.00 81 1006.7
20260505110430 14 194 8.0 14.5 0.00 0.00 0.00 81 1006.7
20260505101908 15 206 4.8 16.1 0.00 0.00 0.00 80 1006.9
20260505101409 14 210 9.7 16.1 0.00 0.00 0.00 79 1007.0
20260505101211 14 221 8.0 16.1 0.00 0.00 0.00 79 1007.0
20260505100405 14 208 8.0 16.1 0.00 0.00 0.00 79 1007.0
20260505095905 14 248 8.0 14.5 0.00 0.00 0.00 79 1007.0
20260505095406 14 227 6.4 14.5 0.00 0.00 0.00 79 1007.0
20260505095208 14 229 6.4 11.3 0.00 0.00 0.00 80 1007.0
20260505094407 14 185 4.8 11.3 0.00 0.00 0.00 79 1007.1
20260505093904 14 178 1.6 9.7 0.00 0.00 0.00 81 1007.0
20260505093403 14 178 1.6 9.7 0.00 0.00 0.00 83 1007.1
20260505092904 13 194 0.0 6.4 0.00 0.00 0.00 83 1007.1
20260505092659 13 194 1.6 6.4 0.00 0.00 0.00 83 1007.1
20260505091904 13 194 3.2 9.7 0.00 0.00 0.00 85 1007.2
20260505091403 13 194 6.4 12.9 0.00 0.00 0.00 85 1007.3
20260505090904 13 173 8.0 16.1 0.00 0.00 0.00 84 1007.3
20260505090404 13 187 9.7 16.1 0.00 0.00 0.00 83 1007.4
20260505085902 13 184 11.3 16.1 0.00 0.00 0.00 82 1007.4
20260505085400 13 160 9.7 16.1 0.00 0.00 0.00 79 1007.3
20260505084901 14 184 9.7 14.5 0.00 0.00 0.00 77 1007.3
20260505084403 14 192 8.0 16.1 0.00 0.00 0.00 76 1007.3
20260505083902 14 218 6.4 16.1 0.00 0.00 0.00 75 1007.3
20260505083401 15 195 3.2 14.5 0.00 0.00 0.00 74 1007.3
20260505083157 15 185 4.8 12.9 0.00 0.00 0.00 73 1007.3
20260505082401 15 167 6.4 12.9 0.00 0.00 0.00 73 1007.3
20260505081903 15 167 4.8 11.3 0.00 0.00 0.00 73 1007.2
20260505081401 15 205 4.8 9.7 0.00 0.00 0.00 73 1007.2
20260505080901 15 201 3.2 8.0 0.00 0.00 0.00 73 1007.2
20260505080401 15 176 1.6 8.0 0.00 0.00 0.00 75 1007.2
20260505080214 15 190 3.2 9.7 0.00 0.00 0.00 76 1007.2
20260505075406 14 223 4.8 11.3 0.00 0.00 0.00 76 1007.3
20260505074901 14 234 6.4 11.3 0.00 0.00 0.00 76 1007.3
20260505074352 14 190 6.4 11.3 0.00 0.00 0.00 77 1007.3
20260505074140 14 190 3.2 11.3 0.00 0.00 0.00 77 1007.4
20260505073332 13 181 0.0 8.0 0.00 0.00 0.00 80 1007.5
20260505073123 13 322 0.0 0.0 0.00 0.00 0.00 81 1007.5
20260505072321 13 322 0.0 0.0 0.00 0.00 0.00 81 1007.5
20260505071816 13 323 0.0 0.0 0.00 0.00 0.00 82 1007.5
20260505071308 13 323 0.0 0.0 0.00 0.00 0.00 82 1007.6
20260505070808 13 323 0.0 0.0 0.00 0.00 0.00 83 1007.6